| time (UTC) | temp F | wind direction | speed knots | gust knots | rain 1hr in | rain 24hr in | rain mn in | humidity % | barometer mb |
| 20260507062049 | 55 | 260 | 6.1 | 0.0 | 0.00 | 0.00 | 0.00 | 71 | |
| 20260507052048 | 55 | 240 | 12.2 | 0.0 | 0.00 | 0.00 | 0.00 | 71 | |
| 20260507042251 | 54 | 230 | 7.8 | 0.0 | 0.00 | 0.00 | 0.00 | 81 | |
| 20260507032048 | 54 | 240 | 6.1 | 0.0 | 0.00 | 0.00 | 0.00 | 81 | |
| 20260507022046 | 54 | 230 | 6.1 | 0.0 | 0.00 | 0.00 | 0.00 | 81 | |
| 20260507012148 | 54 | 240 | 6.1 | 0.0 | 0.00 | 0.00 | 0.00 | 87 | |
| 20260507002048 | 55 | 260 | 10.4 | 0.0 | 0.00 | 0.00 | 0.00 | 76 | |
| 20260506232049 | 57 | 290 | 10.4 | 0.0 | 0.00 | 0.00 | 0.00 | 71 | |
| 20260506222320 | 59 | 260 | 7.8 | 0.0 | 0.00 | 0.00 | 0.00 | 72 | |
| 20260506212110 | 61 | 140 | 6.1 | 0.0 | 0.00 | 0.00 | 0.00 | 59 | |
| 20260506202122 | 64 | 130 | 7.8 | 0.0 | 0.00 | 0.00 | 0.00 | 55 | |
| 20260506192241 | 66 | 120 | 10.4 | 0.0 | 0.00 | 0.00 | 0.00 | 48 | |
| 20260506182138 | 68 | 120 | 12.2 | 0.0 | 0.00 | 0.00 | 0.00 | 45 | |
| 20260506172103 | 70 | 120 | 13.9 | 0.0 | 0.00 | 0.00 | 0.00 | 43 | |
| 20260506162321 | 72 | 130 | 15.6 | 0.0 | 0.00 | 0.00 | 0.00 | 40 | |
| 20260506152137 | 72 | 130 | 15.6 | 25.2 | 0.00 | 0.00 | 0.00 | 37 | |
| 20260506142104 | 73 | 130 | 15.6 | 0.0 | 0.00 | 0.00 | 0.00 | 38 | |
| 20260506132105 | 72 | 130 | 15.6 | 26.9 | 0.00 | 0.00 | 0.00 | 43 | |
| 20260506122104 | 70 | 170 | 12.2 | 0.0 | 0.00 | 0.00 | 0.00 | 43 | |
| 20260506112049 | 72 | 140 | 10.4 | 0.0 | 0.00 | 0.00 | 0.00 | 40 | |
| 20260506102251 | 72 | 190 | 10.4 | 0.0 | 0.00 | 0.00 | 0.00 | 37 | |
| 20260506092035 | 66 | 210 | 6.1 | 0.0 | 0.00 | 0.00 | 0.00 | 48 | |
| 20260506082049 | 64 | 200 | 7.8 | 0.0 | 0.00 | 0.00 | 0.00 | 55 | |
| 20260506072051 | 63 | 230 | 6.1 | 0.0 | 0.00 | 0.00 | 0.00 | 63 |